Погода в Мамуджу

Индонезия     2°42′27″S   118°55′47″E
темп.,
°C
ветер,
м/с
пор.,
м/с
влажн.,
%
обл.,
%
осадки,
мм/ч
давл.,
гПа
погр.,
м
2 марта, вт
вт223:00+21всв1291100 0.0 101258
02:00+20в129399 0.0 101151
05:00+21вюв1289100 0.0 101033
08:00+25в117598 0.0 1012122
11:00+27с237085 1.4 1011760
14:00+27с237283 4.2 1009873
17:00+25ссв237798 1.0 1009434
20:00+22в129199 1.1 101180
3 марта, ср
ср323:00+22вюв1283100 0.0 101232
02:00+22юв127899 0.0 101026
05:00+21юв127657 0.0 101026
08:00+25зсз016754 0.0 1012155
11:00+29ссз225742 0.0 10121209
14:00+25зсз228559 4.6 1010686
17:00+23юз1195100 2.6 1009195
20:00+21юв1197100 3.4 101230
4 марта, чт
чт423:00+21юв1294100 0.5 101333
02:00+20юв2294100 1.3 101145
05:00+20юв1290100 0.2 101128
08:00+23юв118198 0.2 101365
11:00+29сз215397 0.0 10121259
14:00+27зсз127799 1.9 1010751
17:00+24ссз1288100 2.9 1009465
20:00+21в1196100 3.6 101225
5 марта, пт
пт523:00+21юв1294100 0.9 101227
02:00+20юв1291100 0.9 101125
05:00+20ююв1290100 0.0 101128
08:00+23ююв1182100 0.1 101285
11:00+28зсз226199 0.1 10121117
14:00+25ссз228690 4.3 1009598
17:00+24с128596 2.9 1009499
20:00+21всв119798 5.1 101138
6 марта, сб
сб623:00+21вюв119599 0.8 101226
02:00+20вюв129397 1.5 101026
05:00+20вюв129298 0.2 101026
08:00+24в118293 0.2 101296
11:00+26ссз227985 0.9 1012645
14:00+24ссз138486 4.8 1009624
17:00+23с2490100 1.0 1009416
20:00+21всв1398100 1.1 1011159